| time (UTC) | temp F | wind direction | speed knots | gust knots | rain 1hr in | rain 24hr in | rain mn in | humidity % | barometer mb |
| 20260507100025 | 53 | 355 | 0.0 | 0.9 | 0.00 | 0.35 | 0.24 | 92 | 1012.4 |
| 20260507094528 | 53 | 352 | 0.0 | 0.0 | 0.00 | 0.35 | 0.24 | 92 | 1012.5 |
| 20260507093026 | 53 | 352 | 0.0 | 0.9 | 0.00 | 0.35 | 0.24 | 91 | 1012.4 |
| 20260507091523 | 53 | 360 | 0.0 | 1.7 | 0.00 | 0.35 | 0.24 | 92 | 1012.5 |
| 20260507090024 | 53 | 5 | 0.0 | 0.0 | 0.00 | 0.35 | 0.24 | 92 | 1012.2 |
| 20260507084526 | 54 | 329 | 0.0 | 0.0 | 0.00 | 0.35 | 0.24 | 92 | 1012.3 |
| 20260507083030 | 54 | 329 | 0.0 | 0.0 | 0.00 | 0.35 | 0.24 | 92 | 1012.0 |
| 20260507081516 | 54 | 355 | 0.0 | 2.6 | 0.00 | 0.35 | 0.24 | 92 | 1011.5 |
| 20260507080022 | 54 | 24 | 0.0 | 0.0 | 0.00 | 0.35 | 0.24 | 92 | 1011.2 |
| 20260507074523 | 55 | 18 | 0.9 | 4.3 | 0.00 | 0.35 | 0.24 | 93 | 1011.1 |
| 20260507073024 | 55 | 360 | 0.9 | 4.3 | 0.00 | 0.35 | 0.24 | 93 | 1011.0 |
| 20260507071529 | 55 | 315 | 0.9 | 3.5 | 0.00 | 0.35 | 0.24 | 93 | 1010.8 |
| 20260507070026 | 55 | 311 | 0.0 | 5.2 | 0.00 | 0.35 | 0.24 | 93 | 1010.9 |
| 20260507064523 | 56 | 320 | 2.6 | 7.8 | 0.00 | 0.35 | 0.24 | 92 | 1010.7 |
| 20260507063025 | 56 | 309 | 1.7 | 7.0 | 0.02 | 0.35 | 0.24 | 92 | 1010.3 |
| 20260507061510 | 57 | 344 | 0.0 | 3.5 | 0.08 | 0.35 | 0.24 | 91 | 1010.3 |
| 20260507060020 | 58 | 352 | 0.0 | 6.1 | 0.12 | 0.35 | 0.24 | 91 | 1010.7 |
| 20260507054518 | 59 | 318 | 0.0 | 4.3 | 0.15 | 0.35 | 0.24 | 91 | 1010.7 |
| 20260507053006 | 60 | 301 | 0.0 | 5.2 | 0.22 | 0.33 | 0.22 | 90 | 1010.8 |
| 20260507051508 | 60 | 302 | 0.0 | 2.6 | 0.16 | 0.27 | 0.16 | 88 | 1010.8 |
| 20260507050022 | 61 | 313 | 0.0 | 0.0 | 0.12 | 0.23 | 0.12 | 86 | 1010.3 |
| 20260507044518 | 62 | 313 | 0.9 | 4.3 | 0.09 | 0.20 | 0.09 | 84 | 1011.1 |
| 20260507043020 | 62 | 295 | 0.9 | 7.0 | 0.00 | 0.11 | 0.00 | 81 | 1010.9 |
| 20260507041505 | 62 | 291 | 1.7 | 6.1 | 0.00 | 0.11 | 0.00 | 80 | 1010.5 |
| 20260507040014 | 63 | 310 | 2.6 | 8.7 | 0.00 | 0.11 | 0.00 | 85 | 1010.4 |
| 20260507034513 | 64 | 262 | 0.0 | 2.6 | 0.00 | 0.11 | 0.11 | 90 | 1010.4 |
| 20260507033027 | 64 | 257 | 0.0 | 2.6 | 0.00 | 0.11 | 0.11 | 90 | 1010.2 |
| 20260507031532 | 64 | 270 | 0.0 | 5.2 | 0.00 | 0.11 | 0.11 | 90 | 1010.1 |
| 20260507030025 | 64 | 251 | 0.9 | 3.5 | 0.00 | 0.11 | 0.11 | 90 | 1010.1 |
| 20260507024513 | 64 | 215 | 0.0 | 0.0 | 0.00 | 0.11 | 0.11 | 89 | 1009.7 |
| 20260507023020 | 64 | 215 | 0.0 | 0.0 | 0.00 | 0.11 | 0.11 | 89 | 1009.6 |
| 20260507021522 | 64 | 215 | 0.0 | 0.0 | 0.00 | 0.11 | 0.11 | 89 | 1009.5 |
| 20260507020026 | 65 | 215 | 0.0 | 0.0 | 0.00 | 0.11 | 0.11 | 88 | 1009.6 |
| 20260507014511 | 65 | 215 | 0.0 | 0.0 | 0.00 | 0.11 | 0.11 | 88 | 1009.5 |
| 20260507013018 | 65 | 215 | 0.0 | 0.0 | 0.00 | 0.11 | 0.11 | 87 | 1010.1 |
| 20260507011529 | 65 | 215 | 0.0 | 0.0 | 0.00 | 0.11 | 0.11 | 86 | 1010.2 |
| 20260507010034 | 66 | 215 | 0.0 | 0.0 | 0.00 | 0.11 | 0.11 | 84 | 1010.1 |
| 20260507004527 | 66 | 215 | 0.0 | 0.0 | 0.00 | 0.11 | 0.11 | 83 | 1009.5 |
| 20260507003013 | 67 | 215 | 0.0 | 0.0 | 0.00 | 0.11 | 0.11 | 83 | 1009.7 |
| 20260507001525 | 67 | 215 | 0.0 | 0.0 | 0.00 | 0.11 | 0.11 | 82 | 1009.6 |
| 20260507000022 | 68 | 215 | 0.0 | 0.0 | 0.00 | 0.11 | 0.11 | 81 | 1009.6 |
| 20260506234526 | 68 | 215 | 0.0 | 0.0 | 0.00 | 0.11 | 0.11 | 80 | 1009.3 |
| 20260506233028 | 68 | 215 | 0.0 | 2.6 | 0.00 | 0.11 | 0.11 | 79 | 1009.2 |
| 20260506231519 | 69 | 215 | 0.0 | 2.6 | 0.00 | 0.11 | 0.11 | 78 | 1009.0 |
| 20260506230023 | 69 | 215 | 0.9 | 3.5 | 0.00 | 0.11 | 0.11 | 78 | 1009.2 |
| 20260506224526 | 69 | 210 | 0.0 | 6.1 | 0.00 | 0.11 | 0.11 | 77 | 1008.8 |
| 20260506223028 | 69 | 244 | 3.5 | 7.8 | 0.00 | 0.11 | 0.11 | 76 | 1009.1 |
| 20260506221525 | 70 | 217 | 2.6 | 7.8 | 0.00 | 0.11 | 0.11 | 75 | 1009.1 |
| 20260506220020 | 70 | 209 | 1.7 | 6.1 | 0.00 | 0.11 | 0.11 | 75 | 1009.0 |
| 20260506214521 | 71 | 267 | 0.9 | 6.1 | 0.00 | 0.11 | 0.11 | 74 | 1009.1 |
| 20260506213024 | 71 | 262 | 0.9 | 8.7 | 0.00 | 0.11 | 0.11 | 74 | 1008.8 |
| 20260506211519 | 70 | 241 | 1.7 | 7.8 | 0.00 | 0.11 | 0.11 | 75 | 1008.8 |
| 20260506210031 | 70 | 229 | 2.6 | 7.8 | 0.00 | 0.11 | 0.11 | 75 | 1008.5 |
| 20260506204519 | 70 | 235 | 3.5 | 7.8 | 0.00 | 0.11 | 0.11 | 76 | 1008.5 |
| 20260506203005 | 69 | 236 | 3.5 | 10.4 | 0.00 | 0.11 | 0.11 | 77 | 1008.6 |
| 20260506201511 | 69 | 226 | 2.6 | 9.6 | 0.00 | 0.11 | 0.11 | 77 | 1008.6 |
| 20260506200012 | 69 | 201 | 4.3 | 8.7 | 0.00 | 0.11 | 0.11 | 76 | 1008.6 |
| 20260506194518 | 69 | 235 | 3.5 | 10.4 | 0.00 | 0.11 | 0.11 | 77 | 1008.5 |
| 20260506193023 | 69 | 230 | 0.9 | 9.6 | 0.00 | 0.11 | 0.11 | 78 | 1008.8 |
| 20260506191504 | 69 | 198 | 1.7 | 8.7 | 0.00 | 0.11 | 0.11 | 77 | 1008.9 |
| 20260506190013 | 69 | 256 | 0.9 | 7.0 | 0.00 | 0.11 | 0.11 | 77 | 1009.1 |
| 20260506184518 | 69 | 212 | 1.7 | 9.6 | 0.00 | 0.11 | 0.11 | 77 | 1009.2 |
| 20260506183022 | 68 | 244 | 3.5 | 11.3 | 0.00 | 0.11 | 0.11 | 77 | 1009.4 |
| 20260506181525 | 68 | 204 | 2.6 | 10.4 | 0.00 | 0.11 | 0.11 | 79 | 1009.6 |
| 20260506180014 | 67 | 223 | 0.9 | 12.2 | 0.00 | 0.11 | 0.11 | 82 | 1009.8 |
| 20260506174511 | 66 | 223 | 2.6 | 10.4 | 0.00 | 0.11 | 0.11 | 82 | 1009.8 |
| 20260506173022 | 65 | 242 | 5.2 | 12.2 | 0.00 | 0.11 | 0.11 | 82 | 1009.8 |
| 20260506171530 | 65 | 273 | 1.7 | 9.6 | 0.00 | 0.11 | 0.11 | 84 | 1010.1 |
| 20260506170029 | 65 | 186 | 4.3 | 12.2 | 0.00 | 0.11 | 0.11 | 86 | 1010.0 |
| 20260506164526 | 64 | 234 | 4.3 | 12.2 | 0.00 | 0.11 | 0.11 | 87 | 1010.2 |
| 20260506163025 | 64 | 182 | 2.6 | 10.4 | 0.01 | 0.11 | 0.11 | 89 | 1010.1 |
| 20260506161522 | 63 | 243 | 5.2 | 13.0 | 0.02 | 0.11 | 0.11 | 91 | 1010.1 |
| 20260506160027 | 62 | 197 | 4.3 | 10.4 | 0.02 | 0.11 | 0.11 | 91 | 1010.6 |
| 20260506154527 | 62 | 225 | 0.9 | 7.8 | 0.04 | 0.11 | 0.11 | 91 | 1010.4 |
| 20260506153013 | 62 | 207 | 1.7 | 8.7 | 0.07 | 0.10 | 0.10 | 90 | 1010.7 |
| 20260506151523 | 62 | 219 | 0.9 | 7.8 | 0.07 | 0.09 | 0.09 | 90 | 1011.3 |
| 20260506150024 | 62 | 201 | 0.9 | 7.0 | 0.08 | 0.09 | 0.09 | 89 | 1011.2 |
| 20260506144532 | 62 | 184 | 0.9 | 9.6 | 0.07 | 0.07 | 0.07 | 87 | 1011.3 |
| 20260506143027 | 62 | 198 | 0.0 | 7.0 | 0.03 | 0.03 | 0.03 | 85 | 1011.3 |
| 20260506141516 | 63 | 205 | 0.9 | 6.1 | 0.02 | 0.02 | 0.02 | 83 | 1011.4 |
| 20260506140021 | 64 | 204 | 1.7 | 9.6 | 0.01 | 0.01 | 0.01 | 79 | 1011.5 |
| 20260506134524 | 65 | 216 | 0.9 | 7.8 | 0.00 | 0.00 | 0.00 | 76 | 1011.5 |
| 20260506133025 | 65 | 216 | 1.7 | 5.2 | 0.00 | 0.00 | 0.00 | 74 | 1011.5 |
| 20260506131531 | 65 | 240 | 0.9 | 8.7 | 0.00 | 0.00 | 0.00 | 73 | 1011.3 |
| 20260506130020 | 65 | 207 | 2.6 | 9.6 | 0.00 | 0.00 | 0.00 | 73 | 1011.1 |
| 20260506124524 | 65 | 202 | 2.6 | 6.1 | 0.00 | 0.00 | 0.00 | 74 | 1011.1 |
| 20260506123025 | 65 | 201 | 3.5 | 9.6 | 0.00 | 0.00 | 0.00 | 73 | 1011.1 |
| 20260506121508 | 65 | 233 | 1.7 | 7.8 | 0.00 | 0.00 | 0.00 | 73 | 1011.2 |
| 20260506120003 | 65 | 218 | 1.7 | 10.4 | 0.00 | 0.00 | 0.00 | 74 | 1011.3 |
| 20260506114504 | 65 | 209 | 2.6 | 7.8 | 0.00 | 0.00 | 0.00 | 74 | 1011.1 |
| 20260506113007 | 65 | 227 | 1.7 | 7.0 | 0.00 | 0.00 | 0.00 | 75 | 1010.9 |
| 20260506111507 | 64 | 148 | 2.6 | 10.4 | 0.00 | 0.00 | 0.00 | 76 | 1010.8 |
| 20260506110011 | 64 | 212 | 0.9 | 8.7 | 0.00 | 0.00 | 0.00 | 76 | 1010.7 |
| 20260506104504 | 64 | 194 | 3.5 | 8.7 | 0.00 | 0.00 | 0.00 | 77 | 1010.8 |
| 20260506103006 | 64 | 196 | 3.5 | 9.6 | 0.00 | 0.00 | 0.00 | 77 | 1010.6 |
| 20260506101520 | 64 | 201 | 1.7 | 8.7 | 0.00 | 0.00 | 0.00 | 77 | 1010.6 |